Weather in Kazanka

Russia / Omsk Oblast     55°16′05″N   72°45′04″E
temp.,
°C
wind,
m/s
gust,
m/s
humid.,
%
clouds,
%
prec.,
mm/h
press.,
hPa
HPBL,
m
26 february, fri
fri2600:00−28wnw469864 0.0 102494
03:00−28wnw369897 0.0 102597
06:00−30wnw349866 0.0 102852
09:00−31w34970 0.0 102946
12:00−27w35940 0.0 1031254
15:00−24wsw359278 0.0 1032399
18:00−25sw339689 0.0 103272
21:00−28wsw349799 0.0 103358
27 february, sat
sat2700:00−30wsw339788 0.0 103326
03:00−31sw33982 0.0 103322
06:00−32sw339914 0.0 103419
09:00−31ssw239812 0.0 103321
12:00−26s34956 0.0 1033206
15:00−23sse459466 0.0 1032291
18:00−26se349762 0.0 103278
21:00−29sse479620 0.0 1031127
28 february, sun
sun2800:00−29se479918 0.0 1029123
03:00−25se5109795 0.0 1027195
06:00−22se599597 0.0 1025251
09:00−20se61294100 0.0 1022339
12:00−17se71294100 0.1 1020432
15:00−14ese71193100 0.1 1017501
18:00−13ese71294100 0.6 1014500
21:00−13e71395100 0.9 1011436
1 march, mon
mon100:00−12e61195100 1.8 1008404
03:00−12ene5994100 0.7 1006328
06:00−13ne4895100 0.8 1007213
09:00−13ne3696100 0.3 1008208
12:00−12ne3494100 0.4 1009240
15:00−10nne3494100 0.3 1009280
18:00−11n4695100 0.8 1009324
21:00−14nnw369685 0.2 1012134
2 march, tue
tue200:00−16nw359686 0.2 101487
03:00−17wnw369698 0.0 1015126
06:00−17wnw369699 0.1 1016147
09:00−18w359692 0.1 1016129
12:00−15w349190 0.1 1016387
15:00−13w3590100 0.0 1016496
18:00−15sw3395100 0.1 101643
21:00−19wsw349891 0.0 101636